Regional Weather Roundup
Issued by NWS

Home | Current Version | Previous Version | Graphics & Text | Print | Product List | Glossary On
Versions: 1 2 3 4 5 6 7 8 9 10 11 12 13 14 15 16 17 18 19 20 21 22 23 24 25 26 27 28 29 30 31 32 33 34 35 36 37 38 39 40 41 42 43 44 45 46 47 48 49 50
000
ASUS43 KFSD 030010
RWRSD

WEATHER ROUNDUP FOR SOUTH DAKOTA
NATIONAL WEATHER SERVICE SIOUX FALLS SD
700 PM CDT TUE SEP 02 2014

NOTE: "FAIR" INDICATES FEW OR NO CLOUDS BELOW 12,000 FEET WITH NO
SIGNIFICANT WEATHER AND/OR OBSTRUCTIONS TO VISIBILITY.


SDZ001>005-009-010-012>017-030100-
NORTHWEST AND NORTH CENTRAL SOUTH DAKOTA

CITY           SKY/WX    TMP DP  RH WIND       PRES   REMARKS
BUFFALO          N/A     75  46  35 NE7       29.74F
FAITH            N/A     81  46  29 CALM      29.79F
MOBRIDGE       CLOUDY    77  55  46 SW5       29.74F
$$

SDZ012>016-024>037-041>051-057-063-072>074-030100-
SOUTHWEST AND SOUTH CENTRAL SOUTH DAKOTA

CITY           SKY/WX    TMP DP  RH WIND       PRES   REMARKS
RAPID CTY ARPT SUNNY     78  50  37 E7        29.82F
PIERRE         MOSUNNY   82  49  31 S10       29.77F
CUSTER         SUNNY     73  31  21 SW6       29.95F
ELLSWORTH AFB  SUNNY     79  47  33 SE10      29.82F
PHILIP         SUNNY     82  46  28 SW7       29.78F
PINE RIDGE     SUNNY     81  46  29 N5        29.84F
WINNER         FAIR      79  56  45 S10       29.82F
$$

SDZ004>011-016>023-039-040-030100-
NORTHEAST SOUTH DAKOTA

CITY           SKY/WX    TMP DP  RH WIND       PRES   REMARKS
ABERDEEN       SUNNY     71  57  61 S8        29.78F
WATERTOWN      SUNNY     72  55  55 S12       29.85F
SISSETON         N/A     75  56  51 SW10      29.79F
$$

SDZ017-020-022-023-036>040-048>070-030100-
SOUTHEAST SOUTH DAKOTA

CITY           SKY/WX    TMP DP  RH WIND       PRES   REMARKS
SIOUX FALLS    MOSUNNY   73  55  53 S12       29.89F
HURON          SUNNY     75  53  46 S10       29.82F
CHAMBERLAIN    MOSUNNY   76  53  44 S7        29.82F
MITCHELL       SUNNY     76  55  48 S9        29.85F
YANKTON        SUNNY     75  61  60 SE7       29.88F
$$

ABBREVIATIONS USED IN REMARKS
   TC - TEMPERATURE IN CELSIUS
  WCI - WIND CHILL INDEX
   HX - HEAT INDEX
  VSB - VISIBILITY



USA.gov is the U.S. government's official web portal to all federal, state and local government web resources and services.